Location: Hidden Valley Lake
(38.8080°N, 122.5583°W)
Time: 11:50:04
(UTC+00:00)

Daily predictions for brighter satellites

Satellite Brightness Start Highest point End
(mag) Time Altitude Azimuth Time Altitude Azimuth Time Altitude Azimuth
PSLV R/B 3.7 12:01:13 10° NNE 12:05:36 76° E 12:09:56 10° S
Cosmos 2285 Rocket 4.4 12:03:36 19° SW 12:07:53 48° WNW 12:13:57 10° N
Cosmos 468 4.5 12:04:17 10° NNW 12:09:31 67° WSW 12:14:45 10° S
OAO 3 Rocket 3.4 12:07:27 19° WSW 12:10:50 56° S 12:15:41 10° ESE
ARIANE 5 R/B 3.9 12:07:27 10° NNW 12:11:34 24° WNW 12:14:18 16° WSW
Hubble Space Telescope 3.1 12:10:08 10° S 12:11:45 12° SSE 12:13:22 10° SE
H-2A R/B (2) 2.9 12:12:20 14° SSW 12:12:53 14° S 12:14:50 10° SE
Cosmos 1844 Rocket 2.8 12:07:46 10° SSW 12:13:20 78° ESE 12:18:55 10° NNE
deb Chang Zheng 4 4.1 12:11:24 10° NNE 12:15:42 59° E 12:20:00 10° S
Cosmos 2228 3.4 12:12:57 15° SSW 12:16:18 47° W 12:20:33 10° N
Atlas Centaur 2 3.6 12:11:47 16° SW 12:17:04 39° SSE 12:24:37 10° ESE
Cosmos 1603 4.5 12:14:45 10° NW 12:19:37 29° WSW 12:24:27 10° SSW
Cosmos 1386 Rocket 4.4 12:15:38 10° N 12:21:39 75° W 12:27:37 10° S
Cosmos 1553 Rocket 4.5 12:20:39 12° SW 12:25:50 39° WNW 12:31:31 10° N
SAR-Lupe-4 4.2 12:23:15 10° SSE 12:26:46 59° ENE 12:30:18 10° N
NOSS 2-2 (D) 3.4 12:24:06 10° SSW 12:27:39 62° ESE 12:31:19 10° NE
NOSS 2-2 (E) 3.0 12:24:39 12° SSW 12:27:54 87° SE 12:31:40 10° NE
Cosmos 2058 Rocket 3.1 12:25:33 10° SSW 12:30:00 72° W 12:34:29 10° N
Meteor 2-15 Rocket 4.4 12:26:10 10° S 12:32:15 79° W 12:38:20 10° N
CZ-2C R/B 4.2 12:29:46 10° NNW 12:32:39 21° WNW 12:35:08 12° WSW
USA 267 3.3 12:26:56 10° SE 12:33:29 85° SW 12:40:04 10° NW
Cosmos 883 Rocket 4.5 12:29:01 10° S 12:35:13 77° W 12:41:31 10° N
IDEFIX/ARIANE 42P 4.0 12:33:22 10° NNW 12:37:12 21° WNW 12:41:03 10° WSW
Cosmos 1125 Rocket 4.4 12:34:07 11° SW 12:38:32 32° WNW 12:43:14 10° N
Cosmos 1689 Rocket 4.4 12:36:35 10° SE 12:39:09 28° ENE 12:41:43 10° NNE
Cosmos 1745 Rocket 4.2 12:34:03 10° NNW 12:40:03 49° W 12:45:57 10° SSW
ADEOS 3.6 12:34:49 10° NNE 12:40:04 89° E 12:45:17 10° SSW
SAR-Lupe-1 4.1 12:38:23 10° SSE 12:41:58 89° ENE 12:45:34 10° NNW
H-2A R/B 3.1 12:39:06 10° SSW 12:42:23 23° W 12:45:40 10° NW
Cosmos 1943 4.3 12:38:48 10° NW 12:42:59 22° W 12:47:10 10° SSW
CZ-4B R/B 1.2 12:42:57 10° S 12:46:13 70° W 12:49:24 10° NNW
OAO 2 Rocket 4.0 12:41:42 10° WSW 12:46:43 46° SSE 12:51:41 10° E
Cosmos 494 Rocket 4.2 12:42:33 10° NNW 12:47:33 50° WSW 12:52:32 10° S
SeaSat 1 3.2 12:47:01 10° N 12:51:32 37° WNW 12:56:02 10° WSW
ASTRO F (AKARI) 4.3 12:48:50 10° NNE 12:51:56 82° ESE 12:55:01 10° S
